Minot AFB, ND

12:13 AM CDT on August 23, 2017 (GMT -0500)
Minot Air Force Base

Weather History for KMIB - March, 2013

Change the Weather History Date:

Monday, March 25, 2013

  Actual Average Record
Temperature  
Mean Temperature 6 °F -  
Max Temperature 18 °F 38 °F 77 °F (2007)
Min Temperature -7 °F 20 °F -7 °F (2013)
Degree Days  
Heating Degree Days 60    
Moisture  
Dew Point -3 °F    
Average Humidity 82    
Maximum Humidity 86    
Minimum Humidity 75    
Precipitation  
Precipitation 0.00 in - - ()
Snow  
Snow 0.00 in - - ()
Snow Depth 19.00 in    
Sea Level Pressure  
Sea Level Pressure 30.46 in    
Wind  
Wind Speed 7 mph (SW)    
Max Wind Speed 14 mph    
Max Gust Speed -    
Visibility 4 miles    
Events Fog , Snow    
Averages and records for this station are not official NWS values.
T = Trace of Precipitation, MM = Missing Value Source: NWS Daily Summary

Daily Weather History Graph

Daily Weather History Graph

Search for Another Location

Airport or City:

Trip Planner

Search our weather history database for the weather conditions in past years. The results will help you decide how hot, cold, wet, or windy it might be!

Date:

Astronomy

Mar. 25, 2013 Rise Set
Actual Time 7:37 AM CDT 8:06 PM CDT
Civil Twilight 7:05 AM CDT 8:37 PM CDT
Nautical Twilight 6:28 AM CDT 9:14 PM CDT
Astronomical Twilight 5:50 AM CDT 9:53 PM CDT
Moon 6:35 PM CDT (3/25) 6:28 AM CDT (3/25)
Length of Visible Light 13h 31m
Length of Day
12h 28m
Waxing Gibbous, 96% of the Moon is Illuminated
Mar 25
Waxing Gibbous
Mar 27
Full
Apr 2
Last Quarter
Apr 10
New
Apr 18
First Quarter

Hourly Weather History & Observations

Time (CDT) Temp. Windchill Dew Point Humidity Pressure Visibility Wind Dir Wind Speed Gust Speed Precip Events Conditions
12:24 AM 3.2 °F -13.9 °F -0.4 °F 85% 30.44 in 10.0 mi WNW 12.7 mph - N/A   Mostly Cloudy
12:55 AM 3.2 °F -13.9 °F -0.2 °F 86% 30.45 in 10.0 mi WNW 12.7 mph - N/A   Mostly Cloudy
1:01 AM 3.2 °F -13.9 °F -0.4 °F 85% 30.45 in 10.0 mi WNW 12.7 mph - N/A   Scattered Clouds
1:55 AM 2.3 °F -15.7 °F -1.5 °F 84% 30.45 in 10.0 mi WNW 13.8 mph - N/A   Partly Cloudy
2:55 AM 1.8 °F -14.9 °F -2.2 °F 83% 30.46 in 10.0 mi WNW 11.5 mph - N/A   Clear
3:55 AM -1.8 °F -20.2 °F -5.6 °F 84% 30.45 in 10.0 mi NW 12.7 mph - N/A   Clear
4:55 AM -0.8 °F -18.9 °F -4.5 °F 84% 30.45 in 10.0 mi WNW 12.7 mph - N/A   Clear
5:55 AM -2.2 °F -18.9 °F -6.2 °F 83% 30.46 in 10.0 mi WNW 10.4 mph - N/A   Clear
6:55 AM -2.2 °F -16.8 °F -6.2 °F 83% 30.47 in 10.0 mi WNW 8.1 mph - N/A   Clear
7:55 AM -2.2 °F -18.9 °F -6.2 °F 83% 30.48 in 10.0 mi WNW 10.4 mph - N/A   Clear
8:55 AM -1.5 °F -17.1 °F -5.4 °F 83% 30.50 in 10.0 mi WNW 9.2 mph - N/A   Clear
9:49 AM 1.4 °F -12.5 °F -2.2 °F 85% 30.51 in 10.0 mi WNW 8.1 mph - N/A   Partly Cloudy
9:55 AM 1.9 °F -12.9 °F -1.8 °F 84% 30.51 in 10.0 mi WNW 9.2 mph - N/A   Scattered Clouds
9:57 AM 1.4 °F -13.5 °F -2.2 °F 85% 30.51 in 10.0 mi WNW 9.2 mph - N/A   Mostly Cloudy
10:06 AM 3.2 °F -10.3 °F -0.4 °F 85% 30.51 in 10.0 mi WNW 8.1 mph - N/A Snow Light Snow
10:22 AM 5.0 °F -8.1 °F 1.4 °F 85% 30.51 in 8.0 mi WNW 8.1 mph - N/A Snow Light Snow
10:40 AM 6.8 °F -6.9 °F 3.2 °F 85% 30.51 in 9.0 mi WNW 9.2 mph - N/A Snow Light Snow
10:50 AM 6.8 °F -5.9 °F 3.2 °F 85% 30.51 in 9.0 mi WNW 8.1 mph - N/A   Overcast
10:55 AM 6.8 °F -5.9 °F 3.2 °F 85% 30.51 in 10.0 mi WNW 8.1 mph - 0.00 in   Overcast
11:07 AM 6.8 °F -7.8 °F 3.2 °F 85% 30.51 in 10.0 mi WNW 10.4 mph - N/A   Overcast
11:14 AM 6.8 °F -7.8 °F 3.2 °F 85% 30.51 in 10.0 mi WNW 10.4 mph - N/A   Light Freezing Rain
11:26 AM 8.6 °F -5.5 °F 5.0 °F 85% 30.51 in 7.0 mi WNW 10.4 mph - N/A   Overcast
11:29 AM 8.6 °F -4.7 °F 5.0 °F 85% 30.51 in 7.0 mi WNW 9.2 mph - N/A   Overcast
11:48 AM 10.4 °F -1.5 °F 5.0 °F 79% 30.51 in 6.0 mi WNW 8.1 mph - N/A   Overcast
11:55 AM 10.4 °F -1.5 °F 5.9 °F 82% 30.51 in 5.0 mi WNW 8.1 mph - 0.00 in   Overcast
12:16 PM 10.4 °F -1.5 °F 6.8 °F 85% 30.50 in 7.0 mi WNW 8.1 mph - N/A   Overcast
12:43 PM 12.2 °F 0.7 °F 8.6 °F 85% 30.50 in 6.0 mi West 8.1 mph - N/A   Overcast
12:55 PM 12.6 °F 1.1 °F 8.1 °F 82% 30.49 in 7.0 mi West 8.1 mph - 0.00 in   Overcast
1:14 PM 14.0 °F 5.1 °F 8.6 °F 79% 30.49 in 2.5 mi NW 5.8 mph - N/A   Overcast
1:24 PM 14.0 °F 2.9 °F 8.6 °F 79% 30.49 in 1.8 mi NW 8.1 mph - N/A   Overcast
1:25 PM 14.0 °F 2.9 °F 8.6 °F 79% 30.49 in 2.0 mi NW 8.1 mph - N/A   Overcast
1:33 PM 14.0 °F 2.9 °F 8.6 °F 79% 30.48 in 3.0 mi NW 8.1 mph - N/A   Overcast
1:55 PM 14.0 °F 3.9 °F 9.3 °F 82% 30.48 in 7.0 mi NW 6.9 mph - 0.00 in   Overcast
2:10 PM 14.0 °F 3.9 °F 8.6 °F 79% 30.48 in 10.0 mi NW 6.9 mph - N/A   Scattered Clouds
2:55 PM 14.9 °F 7.5 °F 10.2 °F 82% 30.48 in 10.0 mi WNW 4.6 mph - N/A   Clear
3:55 PM 15.8 °F 8.6 °F 10.6 °F 80% 30.47 in 10.0 mi WNW 4.6 mph - N/A   Clear
4:55 PM 16.5 °F 9.4 °F 10.9 °F 79% 30.46 in 10.0 mi NW 4.6 mph - N/A   Clear
5:55 PM 17.2 °F - 10.6 °F 75% 30.45 in 10.0 mi Calm Calm - N/A   Clear
6:55 PM 13.8 °F - 7.7 °F 77% 30.44 in 10.0 mi Calm Calm - N/A   Clear
7:55 PM 7.5 °F - 3.7 °F 85% 30.44 in 10.0 mi Calm Calm - N/A   Clear
8:44 PM 1.4 °F -6.2 °F -2.2 °F 85% 30.45 in 2.5 mi SE 3.5 mph - N/A   Clear
8:45 PM 1.4 °F -6.2 °F -2.2 °F 85% 30.45 in 1.8 mi SE 3.5 mph - N/A   Clear
8:46 PM 1.4 °F -6.2 °F -2.2 °F 85% 30.45 in 1.2 mi SE 3.5 mph - N/A   Clear
8:47 PM 1.4 °F -6.2 °F -2.2 °F 85% 30.45 in 1.0 mi SE 3.5 mph - N/A   Clear
8:48 PM 1.4 °F -6.2 °F -2.2 °F 85% 30.45 in 0.8 mi SE 3.5 mph - N/A   Clear
8:49 PM 1.4 °F -6.2 °F -2.2 °F 85% 30.45 in 0.8 mi SE 3.5 mph - N/A   Clear
8:50 PM 1.4 °F -6.2 °F -2.2 °F 85% 30.45 in 0.5 mi SE 3.5 mph - N/A Fog Light Freezing Fog
8:52 PM 1.4 °F -6.2 °F -2.2 °F 85% 30.45 in 0.5 mi SSE 3.5 mph - N/A Fog Light Freezing Fog
8:53 PM 1.4 °F -6.2 °F -2.2 °F 85% 30.45 in 0.5 mi SSE 3.5 mph - N/A Fog Light Freezing Fog
8:54 PM 1.4 °F -6.2 °F -2.2 °F 85% 30.45 in 0.5 mi SSE 3.5 mph - N/A Fog Light Freezing Fog
8:55 PM 1.6 °F -6.0 °F -2.2 °F 84% 30.45 in 0.5 mi SSE 3.5 mph - N/A Fog Light Freezing Fog
8:59 PM 1.4 °F -6.2 °F -2.2 °F 85% 30.45 in 0.5 mi South 3.5 mph - N/A Fog Light Freezing Fog
9:00 PM 1.4 °F -6.2 °F -2.2 °F 85% 30.45 in 0.5 mi South 3.5 mph - N/A Fog Light Freezing Fog
9:01 PM 1.4 °F -6.2 °F -4.0 °F 78% 30.45 in 0.5 mi South 3.5 mph - N/A   Haze
9:02 PM 1.4 °F -6.2 °F -4.0 °F 78% 30.45 in 0.5 mi South 3.5 mph - N/A   Haze
9:03 PM -0.4 °F -8.3 °F -4.0 °F 85% 30.45 in 0.8 mi South 3.5 mph - N/A   Haze
9:06 PM -0.4 °F -8.3 °F -4.0 °F 85% 30.45 in 1.0 mi South 3.5 mph - N/A   Haze
9:07 PM -0.4 °F -8.3 °F -4.0 °F 85% 30.45 in 1.2 mi South 3.5 mph - N/A   Haze
9:08 PM -0.4 °F -8.3 °F -5.8 °F 78% 30.45 in 1.5 mi South 3.5 mph - N/A   Haze
9:11 PM -2.2 °F -10.4 °F -5.8 °F 85% 30.45 in 2.0 mi South 3.5 mph - N/A   Haze
9:12 PM -2.2 °F -12.5 °F -5.8 °F 85% 30.45 in 1.8 mi South 4.6 mph - N/A   Haze
9:14 PM -2.2 °F -12.5 °F -7.6 °F 78% 30.45 in 2.0 mi South 4.6 mph - N/A   Haze
9:17 PM -2.2 °F -12.5 °F -7.6 °F 78% 30.45 in 4.0 mi South 4.6 mph - N/A   Haze
9:32 PM -4.0 °F -12.4 °F -9.4 °F 78% 30.45 in 2.0 mi South 3.5 mph - N/A   Haze
9:33 PM -4.0 °F -12.4 °F -9.4 °F 78% 30.45 in 1.8 mi South 3.5 mph - N/A   Haze
9:34 PM -4.0 °F -12.4 °F -9.4 °F 78% 30.45 in 1.2 mi South 3.5 mph - N/A   Haze
9:36 PM -4.0 °F - -9.4 °F 78% 30.45 in 1.0 mi Calm Calm - N/A   Haze
9:37 PM -4.0 °F - -9.4 °F 78% 30.45 in 0.8 mi Calm Calm - N/A   Haze
9:38 PM -4.0 °F - -9.4 °F 78% 30.45 in 0.8 mi Calm Calm - N/A   Haze
9:39 PM -5.8 °F - -9.4 °F 84% 30.45 in 0.8 mi Calm Calm - N/A   Haze
9:40 PM -5.8 °F -14.5 °F -9.4 °F 84% 30.45 in 0.8 mi South 3.5 mph - N/A   Haze
9:41 PM -5.8 °F -14.5 °F -9.4 °F 84% 30.45 in 0.8 mi South 3.5 mph - N/A   Haze
9:42 PM -5.8 °F -14.5 °F -9.4 °F 84% 30.45 in 0.5 mi South 3.5 mph - N/A   Haze
9:51 PM -5.8 °F -14.5 °F -9.4 °F 84% 30.45 in 0.8 mi South 3.5 mph - N/A   Haze
9:52 PM -5.8 °F -14.5 °F -9.4 °F 84% 30.45 in 0.8 mi South 3.5 mph - N/A   Haze
9:55 PM -5.4 °F -14.1 °F -9.8 °F 82% 30.45 in 0.8 mi South 3.5 mph - N/A   Haze
9:56 PM -5.8 °F -14.5 °F -9.4 °F 84% 30.45 in 1.0 mi South 3.5 mph - N/A   Haze
10:00 PM -5.8 °F -14.5 °F -9.4 °F 84% 30.45 in 1.2 mi South 3.5 mph - N/A   Haze
10:02 PM -5.8 °F -14.5 °F -9.4 °F 84% 30.45 in 1.0 mi SSE 3.5 mph - N/A   Haze
10:03 PM -5.8 °F -14.5 °F -9.4 °F 84% 30.45 in 0.8 mi SSE 3.5 mph - N/A   Haze
10:05 PM -5.8 °F -14.5 °F -9.4 °F 84% 30.45 in 0.5 mi SSE 3.5 mph - N/A   Haze
10:06 PM -5.8 °F -14.5 °F -9.4 °F 84% 30.45 in 0.5 mi SSE 3.5 mph - N/A   Haze
10:10 PM -5.8 °F -14.5 °F -9.4 °F 84% 30.45 in 0.2 mi SSE 3.5 mph - N/A   Haze
10:11 PM -4.0 °F -12.4 °F -9.4 °F 78% 30.45 in 0.2 mi SSE 3.5 mph - N/A   Haze
10:12 PM -4.0 °F -12.4 °F -9.4 °F 78% 30.45 in 0.2 mi SSE 3.5 mph - N/A   Haze
10:15 PM -4.0 °F -12.4 °F -9.4 °F 78% 30.45 in 0.2 mi SSE 3.5 mph - N/A   Haze
10:35 PM -4.0 °F - -7.6 °F 85% 30.44 in 0.2 mi Calm Calm - N/A   Haze
10:58 PM -5.8 °F - -9.4 °F 84% 30.44 in 0.2 mi Calm Calm - N/A   Haze
11:12 PM -5.8 °F - -11.2 °F 77% 30.43 in 0.2 mi Calm Calm - N/A   Haze
11:14 PM -5.8 °F - -11.2 °F 77% 30.43 in 0.2 mi Calm Calm - N/A   Haze
11:16 PM -5.8 °F - -11.2 °F 77% 30.43 in 0.5 mi Calm Calm - N/A   Haze
11:25 PM -5.8 °F - -9.4 °F 84% 30.43 in 0.2 mi Calm Calm - N/A   Haze
11:27 PM -5.8 °F - -9.4 °F 84% 30.43 in 0.2 mi Calm Calm - N/A   Haze
11:28 PM -5.8 °F - -9.4 °F 84% 30.43 in 0.2 mi Calm Calm - N/A   Haze
11:41 PM -5.8 °F - -11.2 °F 77% 30.43 in 0.2 mi Calm Calm - N/A   Haze
11:46 PM -5.8 °F - -11.2 °F 77% 30.43 in 0.5 mi Calm Calm - N/A   Haze
11:48 PM -5.8 °F - -11.2 °F 77% 30.43 in 0.5 mi Calm Calm - N/A   Haze
11:49 PM -5.8 °F - -11.2 °F 77% 30.43 in 0.5 mi Calm Calm - N/A   Haze
11:55 PM -6.2 °F - -10.7 °F 81% 30.43 in 0.8 mi Calm Calm - N/A   Haze
11:59 PM -7.6 °F - -11.2 °F 84% 30.43 in 0.5 mi Calm Calm - N/A   Haze